星链-31937 (STARLINK-31937 )

导读

STARLINK-31937是美国SpaceX星链计划中的一颗卫星,于2024年5月24日发射升空。作为星链星座的组成部分,它旨在为全球提供高速低延迟互联网接入服务,尤其服务偏远地区、海上和航空移动场景。星链通过低轨卫星组网持续扩容,该卫星入轨进一步完善了星座覆盖能力,推进了全球卫星互联网的部署进程。

Basic Information
目录编号:
59871
目录名称:
STARLINK-31937
国际标识:
2024-098P
轨道中心:
EARTH
卫星名称:
星链-31937
卫星全名:
星链-31937 (STARLINK-31937 )
卫星状态:
在轨 (已飞行755 天)
发射日期:
2024-05-24 UTC
国别 :
美国 (US)
星等 :
--
Orbit Information
数据来源 国际轨道数据 AOE轨道数据
星历时间 2026-06-17T07:49:36+0800
1天前
查看轨道信息
2026-06-14T00:00:00+0800
4天前
查看轨道信息
半长轴 6861.177km 6861.181km
偏心率 0.0001558 0.0001645
轨道倾角 42.994° 43.005°
近地点辐角 147.221° 234.414°
升交点赤经 70.225° 89.017°
平近点角 212.874° 172.987°
近地点 481.971km 481.915km
远地点 484.109km 484.173km
周期 94.267分钟 94.267分钟
每日圈数 15.275832 15.275818
Detailed Information
固有亮度:
5
最大亮度:
1.5
卫星平台:
Starlink v2.0 mini
覆盖范围:
全球
运营商:
太空探索技术公司
运营商所在国:
美国
制造商(研发单位):
太空探索技术公司
制造商所在国:
美国
使用方式:
暂无
Satellite Introduction
星链(Starlink)计划是由太空探索技术公司(SpaceX)提出的一个巨型低轨卫星互联网星座项目,计划在2019年至2024年间在太空搭建由约1.2万颗卫星组成的“星链”网络,其中1584颗将部署在地球上空550千米处的近地轨道,并从2020年开始工作。该卫星仍在工作。
2D Orbit Map
3D Orbit Map
Orbit Altitude Analysis Chart
Orbit Inclination Analysis Chart
Orbit Comprehensive Analysis Chart
View Comprehensive Chart